Weather History for Wasilla, AK

Change the Weather History Date:

Saturday, February 1, 2014

  Actual Average Record
Temperature  
Mean Temperature 15 °F -  
Max Temperature 24 °F 24 °F 48 °F (1981)
Min Temperature 6 °F 7 °F -22 °F (1999)
Degree Days  
Heating Degree Days 50    
Moisture  
Dew Point 8 °F    
Average Humidity 79    
Maximum Humidity 92    
Minimum Humidity 69    
Precipitation  
Precipitation 0.00 in - - ()
Sea Level Pressure  
Sea Level Pressure 30.34 in    
Wind  
Wind Speed 0 mph (SSE)    
Max Wind Speed 5 mph    
Max Gust Speed -    
Visibility 10 miles    
Events      
Averages and records for this station are not official NWS values.
T = Trace of Precipitation, MM = Missing Value Source: NWS Daily Summary

Daily Weather History Graph

Daily Weather History Graph

Search for Another Location

Airport:

Trip Planner

Search our weather history database for the weather conditions in past years. The results will help you decide how hot, cold, wet, or windy it might be!

Date:

Astronomy

Feb. 01, 2014 Rise Set
Actual Time 9:20 AM AKST 5:04 PM AKST
Civil Twilight 8:29 AM AKST 5:54 PM AKST
Nautical Twilight 7:36 AM AKST 6:48 PM AKST
Astronomical Twilight 6:45 AM AKST 7:39 PM AKST
Moon 9:21 AM AKST (2/1) 8:54 PM AKST (2/1)
Length of Visible Light 9h 24m
Length of Day
7h 44m
Waxing Crescent, 6% of the Moon is Illuminated
Feb 1
Waxing Crescent
Feb 6
First Quarter
Feb 14
Full
Feb 22
Last Quarter
Feb 28
New

Hourly Weather History & Observations

Time (AKST) Temp. Windchill Dew Point Humidity Pressure Visibility Wind Dir Wind Speed Gust Speed Precip Events Conditions
12:16 AM 12.2 °F - 6.8 °F 79% 30.28 in 10.0 mi Calm Calm - N/A   Clear
12:36 AM 12.2 °F - 8.6 °F 85% 30.28 in 10.0 mi Calm Calm - N/A   Clear
12:56 AM 12.2 °F - 6.8 °F 79% 30.28 in 10.0 mi Calm Calm - N/A   Clear
1:16 AM 12.2 °F - 6.8 °F 79% 30.28 in 10.0 mi Calm Calm - N/A   Clear
1:36 AM 10.4 °F - 6.8 °F 85% 30.29 in 10.0 mi Calm Calm - N/A   Clear
1:56 AM 10.4 °F - 3.2 °F 73% 30.29 in 10.0 mi Calm Calm - N/A   Clear
2:16 AM 8.6 °F 2.0 °F 1.4 °F 73% 30.30 in 10.0 mi West 3.5 mph - N/A   Clear
2:36 AM 10.4 °F - 6.8 °F 85% 30.30 in 10.0 mi Calm Calm - N/A   Clear
2:56 AM 10.4 °F - 5.0 °F 79% 30.30 in 10.0 mi Calm Calm - N/A   Clear
3:16 AM 8.6 °F - 3.2 °F 79% 30.30 in 10.0 mi Calm Calm - N/A   Clear
3:36 AM 10.4 °F - 6.8 °F 85% 30.30 in 10.0 mi Calm Calm - N/A   Clear
3:56 AM 10.4 °F - 6.8 °F 85% 30.31 in 10.0 mi Calm Calm - N/A   Clear
4:16 AM 10.4 °F - 3.2 °F 73% 30.31 in 10.0 mi Calm Calm - N/A   Clear
4:36 AM 10.4 °F - 3.2 °F 73% 30.31 in 10.0 mi Calm Calm - N/A   Clear
4:56 AM 10.4 °F - 5.0 °F 79% 30.31 in 10.0 mi Calm Calm - N/A   Clear
5:16 AM 10.4 °F - 3.2 °F 73% 30.32 in 10.0 mi Calm Calm - N/A   Clear
5:36 AM 10.4 °F - 3.2 °F 73% 30.32 in 10.0 mi Calm Calm - N/A   Clear
5:56 AM 8.6 °F - 1.4 °F 73% 30.31 in 10.0 mi Calm Calm - N/A   Clear
6:16 AM 8.6 °F - 3.2 °F 79% 30.31 in 10.0 mi Calm Calm - N/A   Clear
6:36 AM 8.6 °F - 3.2 °F 79% 30.31 in 10.0 mi Calm Calm - N/A   Clear
6:56 AM 10.4 °F - 5.0 °F 79% 30.31 in 10.0 mi Calm Calm - N/A   Clear
7:16 AM 10.4 °F - 5.0 °F 79% 30.31 in 10.0 mi Calm Calm - N/A   Clear
7:36 AM 10.4 °F 4.0 °F 3.2 °F 73% 30.31 in 10.0 mi ENE 3.5 mph - N/A   Clear
7:56 AM 10.4 °F 4.0 °F 6.8 °F 85% 30.31 in 10.0 mi ESE 3.5 mph - N/A   Clear
8:16 AM 10.4 °F - 3.2 °F 73% 30.31 in 10.0 mi Calm Calm - N/A   Clear
8:36 AM 6.8 °F - 1.4 °F 79% 30.31 in 10.0 mi Calm Calm - N/A   Clear
8:56 AM 8.6 °F - 3.2 °F 79% 30.31 in 10.0 mi Calm Calm - N/A   Clear
9:16 AM 6.8 °F - 1.4 °F 79% 30.32 in 10.0 mi Calm Calm - N/A   Clear
9:36 AM 8.6 °F 2.0 °F 3.2 °F 79% 30.32 in 10.0 mi WSW 3.5 mph - N/A   Clear
9:56 AM 8.6 °F - 1.4 °F 73% 30.32 in 10.0 mi Calm Calm - N/A   Clear
10:16 AM 8.6 °F 2.0 °F 3.2 °F 79% 30.32 in 10.0 mi West 3.5 mph - N/A   Clear
10:36 AM 10.4 °F - 3.2 °F 73% 30.33 in 10.0 mi Calm Calm - N/A   Clear
10:56 AM 10.4 °F - 5.0 °F 79% 30.33 in 10.0 mi Calm Calm - N/A   Clear
11:16 AM 12.2 °F - 8.6 °F 85% 30.33 in 10.0 mi Calm Calm - N/A   Clear
11:36 AM 14.0 °F - 8.6 °F 79% 30.34 in 10.0 mi Calm Calm - N/A   Clear
11:56 AM 17.6 °F - 12.2 °F 79% 30.34 in 10.0 mi Calm Calm - N/A   Clear
12:16 PM 19.4 °F - 12.2 °F 74% 30.34 in 10.0 mi Calm Calm - N/A   Clear
12:36 PM 21.2 °F 16.4 °F 15.8 °F 80% 30.35 in 10.0 mi SSE 3.5 mph - N/A   Clear
12:56 PM 21.2 °F 14.9 °F 15.8 °F 80% 30.35 in 10.0 mi SSE 4.6 mph - N/A   Clear
1:16 PM 21.2 °F 16.4 °F 15.8 °F 80% 30.35 in 10.0 mi SE 3.5 mph - N/A   Clear
1:36 PM 21.2 °F 16.4 °F 15.8 °F 80% 30.35 in 10.0 mi South 3.5 mph - N/A   Clear
1:56 PM 21.2 °F - 15.8 °F 80% 30.35 in 10.0 mi Calm Calm - N/A   Clear
2:16 PM 23.0 °F - 15.8 °F 74% 30.36 in 10.0 mi Calm Calm - N/A   Clear
2:36 PM 23.0 °F - 15.8 °F 74% 30.36 in 10.0 mi Calm Calm - N/A   Clear
2:56 PM 24.8 °F 20.5 °F 15.8 °F 69% 30.36 in 10.0 mi SSE 3.5 mph - N/A   Clear
3:16 PM 24.8 °F - 15.8 °F 69% 30.36 in 10.0 mi Calm Calm - N/A   Clear
3:36 PM 23.0 °F - 15.8 °F 74% 30.36 in 10.0 mi Calm Calm - N/A   Clear
3:56 PM 23.0 °F 18.4 °F 15.8 °F 74% 30.36 in 10.0 mi SE 3.5 mph - N/A   Clear
4:16 PM 21.2 °F - 15.8 °F 80% 30.36 in 10.0 mi Calm Calm - N/A   Clear
4:36 PM 21.2 °F 16.4 °F 14.0 °F 74% 30.36 in 10.0 mi ESE 3.5 mph - N/A   Clear
4:56 PM 19.4 °F - 15.8 °F 86% 30.36 in 10.0 mi Calm Calm - N/A   Clear
5:16 PM 19.4 °F - 14.0 °F 80% 30.36 in 10.0 mi Calm Calm - N/A   Clear
5:36 PM 17.6 °F - 10.4 °F 73% 30.36 in 10.0 mi Calm Calm - N/A   Clear
5:56 PM 17.6 °F - 12.2 °F 79% 30.36 in 10.0 mi Calm Calm - N/A   Clear
6:16 PM 15.8 °F - 10.4 °F 79% 30.36 in 10.0 mi Calm Calm - N/A   Clear
6:36 PM 15.8 °F - 8.6 °F 73% 30.36 in 10.0 mi Calm Calm - N/A   Clear
6:56 PM 14.0 °F - 8.6 °F 79% 30.36 in 10.0 mi Calm Calm - N/A   Clear
7:16 PM 14.0 °F - 8.6 °F 79% 30.36 in 10.0 mi Calm Calm - N/A   Clear
7:36 PM 12.2 °F - 8.6 °F 85% 30.36 in 10.0 mi Calm Calm - N/A   Clear
7:56 PM 12.2 °F - 6.8 °F 79% 30.36 in 10.0 mi Calm Calm - N/A   Clear
8:16 PM 12.2 °F - 6.8 °F 79% 30.37 in 10.0 mi Calm Calm - N/A   Clear
8:36 PM 12.2 °F - 6.8 °F 79% 30.37 in 10.0 mi Calm Calm - N/A   Clear
8:56 PM 12.2 °F - 8.6 °F 85% 30.37 in 10.0 mi Calm Calm - N/A   Clear
9:16 PM 10.4 °F - 3.2 °F 73% 30.37 in 10.0 mi Calm Calm - N/A   Clear
9:36 PM 10.4 °F - 6.8 °F 85% 30.37 in 10.0 mi Calm Calm - N/A   Clear
9:56 PM 8.6 °F - 6.8 °F 92% 30.37 in 10.0 mi Calm Calm - N/A   Clear
10:16 PM 10.4 °F - 8.6 °F 92% 30.37 in 10.0 mi Calm Calm - N/A   Clear
10:36 PM 10.4 °F - 6.8 °F 85% 30.37 in 10.0 mi Calm Calm - N/A   Clear
10:56 PM 8.6 °F - 3.2 °F 79% 30.37 in 10.0 mi Calm Calm - N/A   Clear
11:16 PM 8.6 °F - 3.2 °F 79% 30.38 in 10.0 mi Calm Calm - N/A   Clear
11:36 PM 10.4 °F - 5.0 °F 79% 30.38 in 10.0 mi Calm Calm - N/A   Clear
11:56 PM 10.4 °F - 5.0 °F 79% 30.37 in 10.0 mi Calm Calm - N/A   Clear